Location: Buckhorn Peak
(37.6641°N, 120.1241°W)
Time: 20:45:36
(UTC+00:00)

BlueWalker 3 - Pass Details

Date: 20 October 2024
Orbit: 471 x 483 km, 53.2° (Epoch: 31 October)

Event Time Altitude Azimuth Distance (km) Brightness Sun altitude
Exits shadow 12:21:26 14° 2° (N) 1,415 4.3 -23.0°
Maximum altitude 12:22:39 16° 25° (NNE) 1,319 4.4 -22.8°
Drops below altitude 10° 12:24:57 10° 64° (ENE) 1,631 5.5 -22.3°
Sets 12:27:47 0° 88° (E) 2,508 7.0 -21.7°
